Weather in Emanzhelinsk

Russia / Chelyabinsk Oblast     54°45′07″N   61°19′02″E
temp.,
°C
wind,
m/s
gust,
m/s
humid.,
%
clouds,
%
prec.,
mm/h
press.,
hPa
HPBL,
m
26 february, fri
fri2623:00−25ssw119718 0.0 103020
02:00−26s22940 0.0 102920
05:00−27ssw12870 0.0 103019
08:00−28s22840 0.0 103019
11:00−24s34940 0.0 1029185
14:00−21s349284 0.0 1028304
17:00−22s359583 0.0 1028211
20:00−27s34960 0.0 102852
27 february, sat
sat2723:00−28s34970 0.0 102754
02:00−28s459927 0.0 102582
05:00−28s469944 0.0 102498
08:00−28sse4610081 0.0 1022122
11:00−23sse589791 0.1 1020315
14:00−19sse6995100 0.1 1017457
17:00−15se51095100 1.0 1014535
20:00−11se51095100 1.0 1012524
28 february, sun
sun2823:00−11se51095100 1.4 1010383
02:00−10se4896100 0.6 1008269
05:00−12se239799 0.9 100737
08:00−11ese2297100 0.1 100629
11:00−8e2293100 0.4 1005229
14:00−6ene2392100 0.6 1005307
17:00−6ne2395100 1.1 1005280
20:00−8nne3596100 0.4 1007133
1 march, mon
mon123:00−11nne349797 0.4 100979
02:00−13nne469798 0.1 1010124
05:00−15nne469699 0.2 1012189
08:00−16nne369691 0.2 1013182
11:00−15nne459491 0.4 1015253
14:00−13nne349199 0.1 1016332
17:00−13ne2493100 0.1 1017303
20:00−16nne239795 0.1 101822
2 march, tue
tue223:00−20n1110085 0.1 101920
02:00−19wsw119752 0.1 101820
05:00−20wsw2210036 0.1 101820
08:00−19sw239830 0.0 101820
11:00−13ssw239220 0.0 1016170
14:00−10ssw349175 0.0 1014307
17:00−11s359688 0.0 1012178
20:00−15ssw349783 0.0 101236